[[{"header":{"parameterUnit":"m.s-1","parameterCategory":1,"la1":30.2991,"la2":30.254,"lo1":-89.0895,"lo2":-89.0444,"dy":0.0017,"dx":0.0017,"nx":28,"ny":28,"refTime":"2025-12-30T03:00:00:Z","depth":0,"parameterNumber":2,"parameterNumberName":"U-component_of_WINDS"},"data":[0,0,0,0,0,0,0,0,0,0,0,0,0,0,0,0,0,0,0,0,0,0,0,0,0,0,0,0,0,0,0,0,0,0,0,0,0,0,0,0,0,0,0,0,0,0,0,0,0,0,0,0,0,0,0,0,0,0,1.2186,1.2185,0,1.2165,1.2165,1.2164,1.2152,1.2152,1.2152,1.2152,1.2129,1.2128,1.2128,0,0,0,0,0,0,0,0,0,0,0,0,0,1.2214,1.2213,1.2186,1.2185,1.2185,1.2165,1.2165,1.2164,1.2152,1.2152,1.2152,1.2152,1.2129,1.2128,1.2127,0,0,0,0,0,0,0,0,0,0,0,0,0,1.2198,1.2213,1.2186,1.2177,1.2176,1.2165,1.2165,1.2164,1.2152,1.2152,1.2152,1.2152,1.2129,1.2128,1.2127,1.2123,0,0,1.2125,1.2124,0,0,0,0,0,0,0,0,1.2199,1.2197,1.2178,1.2177,1.2176,1.2161,1.2166,1.215,1.2152,1.2161,1.2152,1.2152,1.2139,1.2138,1.2134,1.2122,1.2121,1.2125,1.2124,1.2124,1.2123,0,0,0,0,0,0,0,1.22,1.2198,1.2177,1.2178,1.2177,1.2173,1.2171,1.2163,1.2151,1.216,1.2159,1.2157,1.2139,1.2135,1.2133,1.2121,1.2125,1.2124,1.2123,1.2123,1.2105,1.2105,0,0,0,0,0,0,1.2203,1.2199,1.2178,1.2177,1.2188,1.2173,1.217,1.2166,1.2151,1.2149,1.2157,1.2157,1.2136,1.2134,1.2132,1.2126,1.2124,1.2123,1.2122,1.2105,1.2105,1.2105,0,0,0,0,0,0,1.2204,1.2201,1.2179,1.2188,1.2184,1.2173,1.2168,1.2166,1.2161,1.2149,1.2146,1.2155,1.2136,1.2133,1.2126,1.2125,1.2122,1.2122,1.2105,1.2105,1.2105,1.2115,0,0,0,0,0,0,1.2204,1.2201,1.22,1.2188,1.2184,1.2173,1.2168,1.2165,1.216,1.2159,1.2146,1.2144,1.2136,1.2127,1.2125,1.2124,1.2121,1.2105,1.2105,1.2105,1.2114,1.2115,1.2116,0,0,0,0,0,1.2205,1.2203,1.22,1.2197,1.2182,1.2173,1.2171,1.2162,1.216,1.2158,1.215,1.2144,1.2126,1.2126,1.2124,1.2123,1.2105,1.2105,1.2105,1.2114,1.2115,1.2116,0,0,0,0,0,0,1.2215,1.2201,1.2198,1.2191,1.2184,1.2171,1.2168,1.2163,1.2156,1.2155,1.2144,1.2141,1.2134,1.2128,1.2128,1.2118,1.2115,1.2114,1.2123,1.2123,1.2124,1.2125,1.212,0,0,0,0,0,1.2216,1.2211,1.2199,1.2194,1.2191,1.218,1.2176,1.217,1.2161,1.2158,1.2149,1.214,1.2133,1.2128,1.212,1.2114,1.211,1.2112,1.2112,1.2113,1.2113,1.2109,1.2109,1.2105,1.2105,1.2105,0,0,1.2219,1.2211,1.2208,1.2196,1.2189,1.2183,1.2178,1.2171,1.2167,1.2157,1.2149,1.2142,1.2132,1.2125,1.2121,1.2119,1.2113,1.2113,1.2114,1.2113,1.2109,1.211,1.211,1.2105,1.2105,1.2105,0,0,1.222,1.2214,1.221,1.2203,1.2194,1.2187,1.2186,1.2174,1.217,1.2162,1.2155,1.2149,1.2136,1.2129,1.2123,1.2124,1.2118,1.2121,1.2125,1.2122,1.2122,1.2122,1.2122,1.2122,1.2121,1.2121,1.2121,0,1.2225,1.2216,1.2208,1.2202,1.2197,1.2189,1.2185,1.2179,1.2167,1.2163,1.2161,1.2145,1.2137,1.2129,1.2129,1.2125,1.2123,1.2122,1.2123,1.2123,1.2123,1.2123,1.2123,1.2122,1.2122,1.2122,1.2122,0,1.2221,1.2216,1.2213,1.2203,1.2198,1.2192,1.2183,1.2179,1.2174,1.2168,1.216,1.2151,1.2141,1.2139,1.2133,1.2129,1.2129,1.2125,1.2121,1.2124,1.2123,1.2123,1.2122,1.2122,1.2122,1.2122,0,0,1.2227,1.2213,1.2213,1.2208,1.2197,1.2192,1.2187,1.2178,1.2175,1.2167,1.2162,1.2152,1.2148,1.2143,1.2136,1.2133,1.2134,1.213,1.213,1.2131,1.213,1.2132,1.2132,1.2131,1.2131,1.2131,1.213,0,1.2227,1.2218,1.2211,1.2204,1.2198,1.2191,1.2186,1.2179,1.2173,1.2167,1.216,1.2153,1.2149,1.2146,1.2143,1.2135,1.2134,1.2135,1.2125,1.2125,1.2128,1.2132,1.2135,1.2135,1.213,1.213,1.213,0,1.2226,1.2219,1.2212,1.2202,1.2199,1.2195,1.2187,1.2182,1.2173,1.2169,1.2163,1.2157,1.2151,1.2148,1.214,1.2141,1.2137,1.2132,1.2132,1.213,1.2127,1.213,1.2135,1.2135,1.213,1.213,1.213,0,1.2231,1.222,1.2214,1.2211,1.2199,1.2196,1.2191,1.2183,1.2179,1.2171,1.2168,1.216,1.2156,1.2149,1.2141,1.214,1.2133,1.213,1.2129,1.213,1.2128,1.2128,1.2131,1.2126,1.2126,1.2126,1.2126,0,1.2231,1.2227,1.2216,1.2213,1.2208,1.22,1.2195,1.219,1.2182,1.2177,1.217,1.2166,1.2156,1.215,1.2143,1.2137,1.2135,1.2131,1.2129,1.2132,1.2132,1.2128,1.2128,1.2126,1.2126,1.2126,1.2126,0,1.2235,1.2228,1.2222,1.2212,1.2209,1.2206,1.2197,1.2193,1.2188,1.2181,1.2179,1.217,1.2163,1.2154,1.2144,1.214,1.2134,1.2131,1.2137,1.2136,1.2135,1.2136,1.2136,1.2136,1.2131,1.2131,1.2131,0,1.2236,1.2233,1.2223,1.2219,1.2215,1.2209,1.2205,1.2197,1.2192,1.2183,1.218,1.2173,1.2166,1.2155,1.2147,1.2139,1.2136,1.2137,1.2135,1.2138,1.2136,1.2136,1.2136,1.2138,1.2138,1.2138,1.2138,0,1.2238,1.2235,1.2229,1.2222,1.2217,1.2211,1.2205,1.2202,1.2193,1.2189,1.2182,1.2177,1.2167,1.2159,1.2151,1.2145,1.214,1.2139,1.2138,1.214,1.2143,1.2141,1.2138,1.2139,1.2138,1.2138,1.2138,1.2138,1.224,1.2237,1.2229,1.2223,1.2218,1.2212,1.2209,1.2203,1.2197,1.2188,1.2184,1.2177,1.2169,1.2157,1.2152,1.2146,1.2144,1.2144,1.2143,1.2143,1.2144,1.2145,1.2145,1.2145,1.2145,1.2145,1.2145,0,1.2241,1.2236,1.2231,1.2223,1.2218,1.2214,1.2207,1.2203,1.2197,1.2191,1.2185,1.2177,1.217,1.2162,1.2154,1.2151,1.2148,1.2149,1.2149,1.2148,1.2146,1.2147,1.2151,1.2151,1.2151,1.2151,1.2151,1.2151,1.2241,1.2235,1.2232,1.2223,1.2218,1.2212,1.2208,1.2203,1.2198,1.219,1.2184,1.2179,1.2172,1.2164,1.2157,1.2155,1.2152,1.2153,1.215,1.2149,1.2148,1.2147,1.2148,1.2153,1.2153,1.2153,1.2153,1.2153]},{"header":{"parameterUnit":"m.s-1","parameterCategory":1,"la1":30.2991,"la2":30.254,"lo1":-89.0895,"lo2":-89.0444,"dy":0.0017,"dx":0.0017,"nx":28,"ny":28,"refTime":"2025-12-30T03:00:00:Z","depth":0,"parameterNumber":3,"parameterNumberName":"V-component_of_WINDS"},"data":[0,0,0,0,0,0,0,0,0,0,0,0,0,0,0,0,0,0,0,0,0,0,0,0,0,0,0,0,0,0,0,0,0,0,0,0,0,0,0,0,0,0,0,0,0,0,0,0,0,0,0,0,0,0,0,0,0,0,-5.0713,-5.0715,0,-5.0927,-5.093,-5.0932,-5.0894,-5.089,-5.0886,-5.0882,-5.1099,-5.1108,-5.1117,0,0,0,0,0,0,0,0,0,0,0,0,0,-5.0266,-5.0274,-5.0713,-5.0715,-5.0718,-5.0927,-5.093,-5.0933,-5.0894,-5.089,-5.0885,-5.0881,-5.1096,-5.1107,-5.1118,0,0,0,0,0,0,0,0,0,0,0,0,0,-5.0468,-5.0277,-5.0712,-5.0724,-5.0727,-5.0926,-5.093,-5.0934,-5.0895,-5.0889,-5.0884,-5.0878,-5.1092,-5.1106,-5.112,-5.132,0,0,-5.1162,-5.1168,0,0,0,0,0,0,0,0,-5.0457,-5.0485,-5.072,-5.0724,-5.0728,-5.0878,-5.0852,-5.1063,-5.0897,-5.0831,-5.0882,-5.0876,-5.103,-5.1049,-5.1101,-5.133,-5.1339,-5.1164,-5.1172,-5.1178,-5.1182,0,0,0,0,0,0,0,-5.0443,-5.0475,-5.0797,-5.0723,-5.0728,-5.0717,-5.074,-5.0892,-5.096,-5.0837,-5.0834,-5.086,-5.1031,-5.1088,-5.1106,-5.1342,-5.1163,-5.1176,-5.1184,-5.119,-5.1745,-5.1751,0,0,0,0,0,0,-5.0425,-5.0464,-5.0791,-5.0804,-5.0575,-5.073,-5.0755,-5.0835,-5.0958,-5.0971,-5.0865,-5.0858,-5.1067,-5.109,-5.1114,-5.1356,-5.1178,-5.1191,-5.1199,-5.1738,-5.1746,-5.1753,0,0,0,0,0,0,-5.0416,-5.0455,-5.0782,-5.0633,-5.0674,-5.0744,-5.0834,-5.0843,-5.09,-5.098,-5.0991,-5.0911,-5.1063,-5.1094,-5.1269,-5.1362,-5.1197,-5.121,-5.1731,-5.1741,-5.175,-5.1841,0,0,0,0,0,0,-5.0403,-5.0452,-5.053,-5.0635,-5.0682,-5.0935,-5.084,-5.0851,-5.0924,-5.0917,-5.1026,-5.1038,-5.1061,-5.1248,-5.1283,-5.1379,-5.1221,-5.1723,-5.1735,-5.1747,-5.183,-5.1853,-5.1872,0,0,0,0,0,-5.0388,-5.0546,-5.0534,-5.0573,-5.0781,-5.0941,-5.0967,-5.0991,-5.0932,-5.101,-5.1061,-5.1035,-5.1347,-5.1266,-5.1305,-5.1407,-5.1717,-5.1732,-5.1746,-5.1821,-5.1848,-5.1872,0,0,0,0,0,0,-5.0449,-5.0561,-5.0548,-5.0746,-5.0834,-5.0934,-5.1033,-5.102,-5.1126,-5.1115,-5.1138,-5.1163,-5.1341,-5.1391,-5.13,-5.1606,-5.1523,-5.1546,-5.1567,-5.1594,-5.1614,-5.1599,-5.1233,0,0,0,0,0,-5.0486,-5.0607,-5.0697,-5.0863,-5.0908,-5.0963,-5.1034,-5.1044,-5.1137,-5.1173,-5.1237,-5.1327,-5.1445,-5.1522,-5.1635,-5.1837,-5.1859,-5.1926,-5.1946,-5.1963,-5.1983,-5.2092,-5.2122,-5.18,-5.18,-5.18,0,0,-5.0563,-5.0639,-5.0714,-5.0878,-5.0947,-5.1071,-5.0995,-5.113,-5.1222,-5.1194,-5.1363,-5.1413,-5.1514,-5.1703,-5.179,-5.175,-5.2077,-5.1982,-5.1994,-5.2005,-5.211,-5.2141,-5.2168,-5.181,-5.1808,-5.1807,0,0,-5.0766,-5.0836,-5.0982,-5.1053,-5.116,-5.1195,-5.123,-5.1333,-5.1365,-5.1535,-5.1517,-5.1625,-5.1828,-5.1901,-5.1965,-5.2195,-5.2174,-5.2231,-5.234,-5.2447,-5.2472,-5.2495,-5.2576,-5.2606,-5.225,-5.225,-5.225,0,-5.0848,-5.1036,-5.1058,-5.1195,-5.1267,-5.1248,-5.1395,-5.1463,-5.1601,-5.1651,-5.1605,-5.1859,-5.1925,-5.2131,-5.2187,-5.2239,-5.2279,-5.2219,-5.2467,-5.249,-5.2511,-5.2589,-5.262,-5.2256,-5.2255,-5.2255,-5.2254,0,-5.1131,-5.1261,-5.1365,-5.15,-5.1584,-5.1725,-5.1768,-5.185,-5.1853,-5.1893,-5.2065,-5.2145,-5.2273,-5.2323,-5.2327,-5.2529,-5.2501,-5.2461,-5.2378,-5.2548,-5.2622,-5.2652,-5.2265,-5.2263,-5.2261,-5.2259,0,0,-5.138,-5.1525,-5.1563,-5.1623,-5.1739,-5.184,-5.1979,-5.2106,-5.2175,-5.227,-5.2387,-5.2559,-5.2522,-5.2595,-5.2606,-5.27,-5.2876,-5.2648,-5.2651,-5.2688,-5.3103,-5.3133,-5.3167,-5.2863,-5.2869,-5.2874,-5.3095,0,-5.1594,-5.1842,-5.1866,-5.2088,-5.2207,-5.219,-5.2312,-5.2395,-5.2436,-5.2542,-5.2586,-5.2708,-5.265,-5.2694,-5.2785,-5.2836,-5.296,-5.282,-5.2972,-5.2977,-5.2947,-5.3206,-5.3238,-5.3443,-5.3124,-5.3129,-5.3132,0,-5.1878,-5.1982,-5.2216,-5.2315,-5.2366,-5.2475,-5.2592,-5.2694,-5.2788,-5.2811,-5.2891,-5.289,-5.3032,-5.2944,-5.314,-5.3044,-5.3107,-5.3141,-5.3149,-5.3165,-5.3065,-5.3228,-5.3509,-5.3539,-5.3178,-5.3174,-5.3171,0,-5.2036,-5.2235,-5.24,-5.2452,-5.2572,-5.2648,-5.2701,-5.2789,-5.2864,-5.2966,-5.3014,-5.3131,-5.3195,-5.3285,-5.3315,-5.3248,-5.3509,-5.3423,-5.3531,-5.3531,-5.3587,-5.3584,-5.3882,-5.3628,-5.3628,-5.3627,-5.3626,0,-5.2273,-5.2417,-5.2473,-5.2575,-5.2734,-5.276,-5.2917,-5.2966,-5.3044,-5.3154,-5.3146,-5.3249,-5.3282,-5.3391,-5.3415,-5.3573,-5.3602,-5.3624,-5.3628,-5.3625,-5.3622,-5.3667,-5.3653,-5.3635,-5.3633,-5.3632,-5.363,0,-5.2477,-5.2521,-5.27,-5.2798,-5.2825,-5.2939,-5.3022,-5.312,-5.3158,-5.3297,-5.3331,-5.3391,-5.3518,-5.3557,-5.371,-5.3726,-5.3912,-5.3903,-5.388,-5.3881,-5.3987,-5.3976,-5.4324,-5.4371,-5.4086,-5.4089,-5.4091,0,-5.2626,-5.2736,-5.2846,-5.2919,-5.2975,-5.3094,-5.317,-5.3198,-5.3277,-5.3392,-5.3475,-5.3601,-5.3703,-5.3907,-5.3964,-5.408,-5.4075,-5.4189,-5.4092,-5.4085,-5.4077,-5.407,-5.4081,-5.4207,-5.421,-5.4213,-5.4215,0,-5.2885,-5.2901,-5.3011,-5.3129,-5.3219,-5.3313,-5.3403,-5.3464,-5.3505,-5.3594,-5.3724,-5.3804,-5.396,-5.4085,-5.4203,-5.4256,-5.4243,-5.4244,-5.4275,-5.4273,-5.4255,-5.4266,-5.393,-5.4236,-5.4234,-5.4233,-5.4231,-5.4231,-5.3066,-5.3163,-5.3255,-5.3377,-5.3448,-5.3533,-5.3629,-5.3679,-5.3789,-5.3919,-5.3929,-5.407,-5.4159,-5.4317,-5.4376,-5.4486,-5.4453,-5.4498,-5.4509,-5.452,-5.4529,-5.4237,-5.4507,-5.4507,-5.4506,-5.4506,-5.4505,0,-5.3324,-5.3383,-5.3495,-5.3622,-5.3718,-5.3697,-5.3796,-5.3877,-5.4002,-5.4087,-5.4188,-5.4337,-5.4458,-5.4524,-5.4644,-5.4719,-5.4715,-5.4749,-5.4744,-5.4756,-5.4551,-5.4512,-5.475,-5.475,-5.475,-5.475,-5.475,-5.475,-5.347,-5.3633,-5.3659,-5.3856,-5.3913,-5.4052,-5.411,-5.4187,-5.4255,-5.4423,-5.4524,-5.4566,-5.4643,-5.4769,-5.4878,-5.4894,-5.4938,-5.4976,-5.4989,-5.4796,-5.4771,-5.4747,-5.4711,-5.4986,-5.4986,-5.5185,-5.5186,-5.5188]}]]